Regional Weather Roundup
Issued by NWS

Home | Current Version | Previous Version | Graphics & Text | Print | Product List | Glossary Off
Versions: 1 2 3 4 5 6 7 8 9 10 11 12 13 14 15 16 17 18 19 20 21 22 23 24 25 26 27 28 29 30 31 32 33 34 35 36 37 38 39 40 41 42 43 44 45 46 47 48 49 50

000
ASUS43 KMKX 220021
RWRWI

WISCONSIN REGIONAL WEATHER ROUNDUP
NATIONAL WEATHER SERVICE MILWAUKEE/SULLIVAN WI
700 PM CDT MON AUG 21 2017

NOTE: "FAIR" INDICATES FEW OR NO CLOUDS BELOW 12,000 FEET WITH NO
SIGNIFICANT WEATHER AND/OR OBSTRUCTIONS TO VISIBILITY.

WIZ001-002-006>008-014>016-023>028-220100-
NORTHWEST WISCONSIN

CITY           SKY/WX    TMP DP  RH WIND       PRES   REMARKS
SUPERIOR ARPT  LGT RAIN  64  62  92 NE6       29.84F
6HR MIN TEMP:  64; 6HR MAX TEMP:  70;

ASHLAND        CLOUDY    65  60  84 N3        29.87F
6HR MIN TEMP:  65; 6HR MAX TEMP:  70; 6HR PCP:  0.01;

HAYWARD        CLOUDY    71  66  84 S5        29.87F
6HR MIN TEMP:  71; 6HR MAX TEMP:  75; 6HR PCP: TRACE;

SIREN          CLOUDY    72  65  79 SW7       29.87F
6HR MIN TEMP:  71; 6HR MAX TEMP:  75;

CUMBERLAND     CLOUDY    68  63  83 SW5       29.88F
RICE LAKE      CLOUDY    71  64  80 SW5       29.88F
6HR MIN TEMP:  71; 6HR MAX TEMP:  74;

CHETEK           N/A     70  68  93 CALM      29.87F
6HR MIN TEMP:  70; 6HR MAX TEMP:  76;

LADYSMITH      CLOUDY    72  68  87 CALM      29.89F
6HR MIN TEMP:  72; 6HR MAX TEMP:  77;

EAU CLAIRE     CLOUDY    71  66  84 W5        29.83F
6HR MIN TEMP:  71; 6HR MAX TEMP:  78; 6HR PCP: TRACE;

MENOMONIE      CLOUDY    71  64  78 W7        29.86F
6HR MIN TEMP:  71; 6HR MAX TEMP:  76;

NEW RICHMOND   PTSUNNY   67  62  82 SW3       29.88F
6HR MIN TEMP:  67; 6HR MAX TEMP:  76;

OSCEOLA        PTSUNNY   71  65  84 SW5       29.90F
6HR MIN TEMP:  70; 6HR MAX TEMP:  75; 6HR PCP:  0.07;

$$

WIZ003>005-009-010-017-018-220100-
NORTH CENTRAL WISCONSIN

CITY           SKY/WX    TMP DP  RH WIND       PRES   REMARKS
MANITOWISH WTR CLOUDY    71  69  94 S3        29.89F
6HR MIN TEMP:  70; 6HR MAX TEMP:  75;

ARBOR VITAE    CLOUDY    72  70  93 SW8       29.90F
6HR MIN TEMP:  72; 6HR MAX TEMP:  77; 6HR PCP:  0.29;

WOODRUFF       CLOUDY    72  70  93 SW8       29.90F
6HR MIN TEMP:  72; 6HR MAX TEMP:  77; 6HR PCP:  0.29;

RHINELANDER    CLOUDY    68  67  96 SE6       29.92F
6HR MIN TEMP:  67; 6HR MAX TEMP:  78; 6HR PCP:  0.82;

EAGLE RIVER    CLOUDY    69  62  77 S5        29.90F
6HR MIN TEMP:  69; 6HR MAX TEMP:  77;

LAND O LAKES   CLOUDY    70  66  89 CALM      29.91F
6HR MIN TEMP:  70; 6HR MAX TEMP:  78;

PHILLIPS       CLOUDY    72  69  89 SW5       29.88F
6HR MIN TEMP:  72; 6HR MAX TEMP:  77;

TOMAHAWK         N/A     67  66  96 CALM      29.91F
6HR MIN TEMP:  67; 6HR MAX TEMP:  77;

MEDFORD        CLOUDY    70  67  92 S7        29.90F
6HR MIN TEMP:  70; 6HR MAX TEMP:  76; 6HR PCP:  0.09;

MERRILL        CLOUDY    70  70 100 SW3       29.91F
$$

WIZ029-030-035-036-043>047-220100-
CENTRAL WISCONSIN

CITY           SKY/WX    TMP DP  RH WIND       PRES   REMARKS
WAUSAU         CLOUDY    73  66  78 SW3       29.91S
6HR MIN TEMP:  71; 6HR MAX TEMP:  77; 6HR PCP:  0.11;

MOSINEE        MOCLDY    72  64  78 SW7       29.93S
MARSHFIELD     CLOUDY    71  63  75 SW8       29.91F
6HR MIN TEMP:  71; 6HR MAX TEMP:  79; 6HR PCP: TRACE;

STEVENS POINT  CLOUDY    73  63  71 SW8       29.93S
6HR MIN TEMP:  73; 6HR MAX TEMP:  80;

WAUPACA        CLOUDY    78  66  66 SW8       29.92F HX  80
6HR MIN TEMP:  78; 6HR MAX TEMP:  82;

WAUTOMA        CLOUDY    75  67  76 SW6         N/A
6HR MIN TEMP:  75; 6HR MAX TEMP:  81;

WISC RAPIDS    CLOUDY    74  65  73 W7        29.93F
6HR MIN TEMP:  74; 6HR MAX TEMP:  83;

CAMP DOUGLAS   CLOUDY    72  64  78 W9        29.93F
$$

WIZ011>013-019>022-031-037>040-048>050-220100-
NORTHEAST WISCONSIN

CITY           SKY/WX    TMP DP  RH WIND       PRES   REMARKS
ANTIGO         CLOUDY    67  66  97 SW3       29.94S
6HR MIN TEMP:  66; 6HR MAX TEMP:  77; 6HR PCP:  0.35;

SHAWANO        CLOUDY    77  69  74 CALM      29.91R
6HR MIN TEMP:  77; 6HR MAX TEMP:  84;

OCONTO         CLOUDY    75  69  79 SW3       29.89F
6HR MIN TEMP:  73; 6HR MAX TEMP:  81;

STURGEON BAY   CLOUDY    73  68  84 S10       29.92F
6HR MIN TEMP:  72; 6HR MAX TEMP:  79;

GREEN BAY      CLOUDY    76  70  82 S6        29.91F
6HR MIN TEMP:  76; 6HR MAX TEMP:  80;

MANITOWOC        N/A    N/A N/A N/A MISG        N/A
APPLETON       MOCLDY    75  64  69 VRB6      29.92S
CLINTONVILLE   CLOUDY    77  64  65 SW7       29.90F
OSHKOSH        CLOUDY    76  70  82 S7        29.93S
6HR MIN TEMP:  74; 6HR MAX TEMP:  81;

$$

WIZ032>034-041-042-053>061-220100-
SOUTHWEST WISCONSIN

CITY           SKY/WX    TMP DP  RH WIND       PRES   REMARKS
LA CROSSE      LGT RAIN  71  67  87 SW5       29.91F
6HR MIN TEMP:  71; 6HR MAX TEMP:  81; 6HR PCP:  0.14;

SPARTA         LGT RAIN  68  66  92 W12G17    29.95F
6HR MIN TEMP:  68; 6HR MAX TEMP:  78;

VIROQUA        CLOUDY    69  66  92 CALM      29.94F
6HR MIN TEMP:  69; 6HR MAX TEMP:  76;

BOSCOBEL       MOCLDY    77  67  71 SW3       29.95F
6HR MIN TEMP:  77; 6HR MAX TEMP:  85;

PRAIRIE DU CHI CLOUDY    75  65  71 W6        29.96F
6HR MIN TEMP:  74; 6HR MAX TEMP:  80;

PLATTEVILLE    CLOUDY    76  72  87 W5        29.97F
6HR MIN TEMP:  73; 6HR MAX TEMP:  79;

$$

WIZ056-057-062-063-064-067-068-220100-
SOUTH CENTRAL WISCONSIN

CITY           SKY/WX    TMP DP  RH WIND       PRES   REMARKS
REEDSBURG      CLOUDY    75  67  75 W9        29.95S
6HR MIN TEMP:  74; 6HR MAX TEMP:  82;

BARABOO/DELLS  CLOUDY    75  65  72 SW7       29.95S
6HR MIN TEMP:  75; 6HR MAX TEMP:  82;

LONE ROCK      CLOUDY    78  67  68 W14       29.95S HX  80
6HR MIN TEMP:  76; 6HR MAX TEMP:  82;

MINERAL POINT  CLOUDY    75  72  88 W3        29.97F
MADISON        MOCLDY    77  67  71 CALM      29.95F
6HR MIN TEMP:  75; 6HR MAX TEMP:  81;

MIDDLETON      PTCLDY    75  68  78 W5        29.97S
6HR MIN TEMP:  75; 6HR MAX TEMP:  83;

WATERTOWN      CLOUDY    76  72  85 CALM      29.95F
6HR MIN TEMP:  73; 6HR MAX TEMP:  81;

MONROE         CLOUDY    73  66  78 SW9       29.98R
JANESVILLE     MOCLDY    79  66  65 SW6       29.96F HX  81
$$

WIZ051-052-058>065-066-070>072-220100-
SOUTHEAST WISCONSIN

CITY           SKY/WX    TMP DP  RH WIND       PRES   REMARKS
MILWAUKEE      MOCLDY    82  71  69 S9        29.94F HX  86
6HR MIN TEMP:  78; 6HR MAX TEMP:  84;

WAUKESHA       MOCLDY    77  66  69 SW12      29.97F
MILWAUKEE/TIMM PTCLDY    81  64  57 S10       29.96F HX  82
RACINE         CLOUDY    78  72  81 S8        29.97F HX  80
6HR MIN TEMP:  76; 6HR MAX TEMP:  82;

KENOSHA        CLOUDY    80  67  64 SW13G20   29.97F HX  82
6HR MIN TEMP:  77; 6HR MAX TEMP:  83;

FOND DU LAC    MOCLDY    77  69  76 SW3       29.94F
6HR MIN TEMP:  74; 6HR MAX TEMP:  81;

SHEBOYGAN      MOCLDY    75  72  90 S10       29.94S
6HR MIN TEMP:  74; 6HR MAX TEMP:  79;

WEST BEND      CLOUDY    75  70  83 SW5       29.95F
JUNEAU         PTCLDY    76  67  75 SW7       29.97S
6HR MIN TEMP:  73; 6HR MAX TEMP:  78;

$$

LSZ147-162-220100-
LAKE SUPERIOR

STATION/POSITION TIME  TEMP    WIND        PRES    WAVE
                       AIR SEA DIR/SP/G            HT/PER
                 (UTC) (F)     (DEG/KT/KT) (MB)    (FT/S)
W MID LAKE BUOY  2350   62 60  100/  8/ 10 1011.3F   0
DEVILS ISLAND    0000   64     120/  4/  5 1011.0F
PORT WING        2140   72      30/  7/  9 1012.5
SAXON HARBOR     2330   66     230/  1/  2 1011.2F
$$

LMZ867-665-643>646-220100-
LAKE MICHIGAN

STATION/POSITION TIME  TEMP    WIND        PRES    WAVE
                       AIR SEA DIR/SP/G            HT/PER
                 (UTC) (F)     (DEG/KT/KT) (MB)    (FT/S)
S GREEN BAY BUOY 0000   76 74  210/  4/  6 1012.6
N MID LAKE BUOY  2350   70 69  220/  6/  6 1013.5F   1
NORTHPORT PIER   2340   71     150/  4/  5 1012.5F
KEWAUNEE LAKESHO 2354   69     180/  7/  8 10



USA.gov is the U.S. government's official web portal to all federal, state and local government web resources and services.